| time (UTC) | temp C | wind direction | speed KPH | gust KPH | rain 1hr cm | rain 24hr cm | rain mn cm | humidity % | barometer mb |
| 20260509032425 | 12 | 190 | 0.0 | 0.0 | 0.00 | 0.00 | 0.00 | 81 | 1045.3 |
| 20260509031923 | 12 | 190 | 0.0 | 0.0 | 0.00 | 0.00 | 0.00 | 79 | 1045.5 |
| 20260509031420 | 12 | 192 | 0.0 | 0.0 | 0.00 | 0.00 | 0.00 | 79 | 1045.4 |
| 20260509030917 | 12 | 193 | 0.0 | 0.0 | 0.00 | 0.00 | 0.00 | 79 | 1045.6 |
| 20260509030415 | 12 | 102 | 0.0 | 0.0 | 0.00 | 0.00 | 0.00 | 75 | 1045.5 |
| 20260509025912 | 12 | 102 | 0.0 | 0.0 | 0.00 | 0.00 | 0.00 | 74 | 1045.6 |
| 20260509025408 | 12 | 104 | 0.0 | 0.0 | 0.00 | 0.00 | 0.00 | 73 | 1045.4 |
| 20260509024903 | 13 | 115 | 0.0 | 0.0 | 0.00 | 0.00 | 0.00 | 73 | 1045.6 |
| 20260509024359 | 13 | 98 | 0.0 | 0.0 | 0.00 | 0.00 | 0.00 | 73 | 1045.6 |
| 20260509023856 | 13 | 92 | 0.0 | 0.0 | 0.00 | 0.00 | 0.00 | 70 | 1045.6 |
| 20260509023354 | 13 | 88 | 0.0 | 0.0 | 0.00 | 0.00 | 0.00 | 70 | 1045.6 |
| 20260509022850 | 12 | 104 | 0.0 | 0.0 | 0.00 | 0.00 | 0.00 | 73 | 1045.8 |
| 20260509022347 | 12 | 127 | 0.0 | 0.0 | 0.00 | 0.00 | 0.00 | 74 | 1045.8 |
| 20260509021844 | 12 | 130 | 0.0 | 0.0 | 0.00 | 0.00 | 0.00 | 74 | 1045.7 |
| 20260509021341 | 12 | 97 | 0.0 | 0.0 | 0.00 | 0.00 | 0.00 | 74 | 1045.6 |
| 20260509020839 | 12 | 116 | 0.0 | 0.0 | 0.00 | 0.00 | 0.00 | 73 | 1045.8 |
| 20260509020337 | 12 | 104 | 0.0 | 0.0 | 0.00 | 0.00 | 0.00 | 75 | 1045.7 |
| 20260509015834 | 12 | 94 | 0.0 | 0.0 | 0.00 | 0.00 | 0.00 | 74 | 1045.9 |
| 20260509015332 | 12 | 121 | 0.0 | 0.0 | 0.00 | 0.00 | 0.00 | 73 | 1045.6 |
| 20260509014828 | 12 | 121 | 0.0 | 0.0 | 0.00 | 0.00 | 0.00 | 71 | 1045.8 |
| 20260509014325 | 12 | 76 | 0.0 | 0.0 | 0.00 | 0.00 | 0.00 | 70 | 1045.6 |
| 20260509013822 | 13 | 101 | 0.0 | 0.0 | 0.00 | 0.00 | 0.00 | 69 | 1045.8 |
| 20260509013319 | 13 | 75 | 0.0 | 0.0 | 0.00 | 0.00 | 0.00 | 68 | 1045.7 |
| 20260509012815 | 13 | 86 | 1.6 | 1.6 | 0.00 | 0.00 | 0.00 | 68 | 1045.8 |
| 20260509012311 | 12 | 82 | 0.0 | 0.0 | 0.00 | 0.00 | 0.00 | 68 | 1045.8 |
| 20260509011809 | 13 | 105 | 0.0 | 0.0 | 0.00 | 0.00 | 0.00 | 67 | 1045.5 |
| 20260509011306 | 13 | 115 | 0.0 | 0.0 | 0.00 | 0.00 | 0.00 | 64 | 1045.4 |
| 20260509010804 | 13 | 95 | 0.0 | 0.0 | 0.00 | 0.00 | 0.00 | 62 | 1045.3 |
| 20260509010300 | 14 | 108 | 0.0 | 0.0 | 0.00 | 0.00 | 0.00 | 63 | 1045.6 |
| 20260509005758 | 14 | 111 | 0.0 | 0.0 | 0.00 | 0.00 | 0.00 | 61 | 1045.4 |
| 20260509005256 | 15 | 130 | 0.0 | 0.0 | 0.00 | 0.00 | 0.00 | 58 | 1045.3 |
| 20260509004755 | 16 | 130 | 0.0 | 0.0 | 0.00 | 0.00 | 0.00 | 57 | 1045.4 |
| 20260509004252 | 17 | 115 | 0.0 | 0.0 | 0.00 | 0.00 | 0.00 | 49 | 1045.5 |
| 20260509003750 | 17 | 72 | 1.6 | 3.2 | 0.00 | 0.00 | 0.00 | 44 | 1045.4 |
| 20260509003248 | 17 | 99 | 0.0 | 0.0 | 0.00 | 0.00 | 0.00 | 44 | 1045.5 |
| 20260509002745 | 18 | 62 | 3.2 | 3.2 | 0.00 | 0.00 | 0.00 | 42 | 1045.7 |
| 20260509002242 | 18 | 55 | 3.2 | 4.8 | 0.00 | 0.00 | 0.00 | 40 | 1045.4 |
| 20260509001740 | 18 | 93 | 4.8 | 4.8 | 0.00 | 0.00 | 0.00 | 40 | 1045.7 |
| 20260509001235 | 18 | 101 | 1.6 | 1.6 | 0.00 | 0.00 | 0.00 | 41 | 1045.7 |
| 20260509000734 | 19 | 80 | 1.6 | 1.6 | 0.00 | 0.00 | 0.00 | 40 | 1045.8 |
| 20260509000231 | 19 | 105 | 1.6 | 3.2 | 0.00 | 0.00 | 0.00 | 40 | 1045.6 |
| 20260508235727 | 19 | 92 | 1.6 | 1.6 | 0.00 | 0.00 | 0.00 | 38 | 1045.7 |
| 20260508235224 | 19 | 80 | 3.2 | 4.8 | 0.00 | 0.00 | 0.00 | 38 | 1045.8 |
| 20260508234722 | 19 | 90 | 3.2 | 4.8 | 0.00 | 0.00 | 0.00 | 38 | 1045.7 |
| 20260508234218 | 19 | 333 | 1.6 | 4.8 | 0.00 | 0.00 | 0.00 | 39 | 1045.9 |
| 20260508233717 | 19 | 58 | 3.2 | 4.8 | 0.00 | 0.00 | 0.00 | 39 | 1045.8 |
| 20260508233215 | 19 | 89 | 1.6 | 4.8 | 0.00 | 0.00 | 0.00 | 40 | 1045.7 |
| 20260508232712 | 19 | 57 | 4.8 | 6.4 | 0.00 | 0.00 | 0.00 | 37 | 1045.8 |
| 20260508232208 | 20 | 128 | 4.8 | 9.7 | 0.00 | 0.00 | 0.00 | 37 | 1046.1 |
| 20260508231707 | 20 | 308 | 1.6 | 9.7 | 0.00 | 0.00 | 0.00 | 40 | 1046.0 |
| 20260508231203 | 20 | 75 | 3.2 | 11.3 | 0.00 | 0.00 | 0.00 | 37 | 1046.1 |
| 20260508230700 | 20 | 65 | 3.2 | 4.8 | 0.00 | 0.00 | 0.00 | 37 | 1046.3 |
| 20260508230156 | 21 | 48 | 6.4 | 12.9 | 0.00 | 0.00 | 0.00 | 34 | 1046.1 |
| 20260508225654 | 21 | 115 | 4.8 | 4.8 | 0.00 | 0.00 | 0.00 | 34 | 1046.0 |
| 20260508225150 | 21 | 58 | 4.8 | 4.8 | 0.00 | 0.00 | 0.00 | 35 | 1045.9 |
| 20260508224648 | 21 | 257 | 4.8 | 11.3 | 0.00 | 0.00 | 0.00 | 34 | 1045.9 |
| 20260508224145 | 21 | 153 | 6.4 | 11.3 | 0.00 | 0.00 | 0.00 | 33 | 1046.0 |
| 20260508223643 | 21 | 66 | 4.8 | 6.4 | 0.00 | 0.00 | 0.00 | 34 | 1045.7 |
| 20260508223140 | 22 | 112 | 4.8 | 11.3 | 0.00 | 0.00 | 0.00 | 33 | 1046.0 |
| 20260508222637 | 22 | 104 | 6.4 | 11.3 | 0.00 | 0.00 | 0.00 | 32 | 1046.0 |
| 20260508222134 | 22 | 216 | 4.8 | 4.8 | 0.00 | 0.00 | 0.00 | 34 | 1045.7 |
| 20260508221630 | 22 | 259 | 3.2 | 4.8 | 0.00 | 0.00 | 0.00 | 36 | 1045.7 |
| 20260508221126 | 22 | 105 | 4.8 | 9.7 | 0.00 | 0.00 | 0.00 | 35 | 1045.7 |
| 20260508220623 | 21 | 237 | 1.6 | 11.3 | 0.00 | 0.00 | 0.00 | 32 | 1045.7 |
| 20260508220120 | 22 | 71 | 6.4 | 6.4 | 0.00 | 0.00 | 0.00 | 37 | 1045.7 |
| 20260508215616 | 22 | 59 | 4.8 | 14.5 | 0.00 | 0.00 | 0.00 | 33 | 1045.9 |
| 20260508215113 | 22 | 199 | 3.2 | 6.4 | 0.00 | 0.00 | 0.00 | 31 | 1046.0 |
| 20260508214610 | 22 | 204 | 3.2 | 11.3 | 0.00 | 0.00 | 0.00 | 36 | 1045.9 |
| 20260508214107 | 22 | 257 | 9.7 | 14.5 | 0.00 | 0.00 | 0.00 | 34 | 1045.9 |
| 20260508213604 | 22 | 297 | 1.6 | 12.9 | 0.00 | 0.00 | 0.00 | 35 | 1046.0 |
| 20260508213100 | 22 | 91 | 6.4 | 9.7 | 0.00 | 0.00 | 0.00 | 35 | 1045.7 |
| 20260508212557 | 22 | 183 | 4.8 | 12.9 | 0.00 | 0.00 | 0.00 | 30 | 1045.7 |
| 20260508212053 | 22 | 248 | 3.2 | 14.5 | 0.00 | 0.00 | 0.00 | 35 | 1045.9 |
| 20260508211548 | 22 | 191 | 3.2 | 6.4 | 0.00 | 0.00 | 0.00 | 33 | 1045.8 |
| 20260508211045 | 22 | 104 | 4.8 | 11.3 | 0.00 | 0.00 | 0.00 | 33 | 1046.0 |
| 20260508210542 | 22 | 180 | 8.0 | 17.7 | 0.00 | 0.00 | 0.00 | 35 | 1046.0 |
| 20260508210039 | 21 | 188 | 3.2 | 14.5 | 0.00 | 0.00 | 0.00 | 36 | 1046.3 |
| 20260508205536 | 22 | 247 | 14.5 | 17.7 | 0.00 | 0.00 | 0.00 | 31 | 1046.3 |
| 20260508205032 | 22 | 269 | 4.8 | 12.9 | 0.00 | 0.00 | 0.00 | 35 | 1046.3 |
| 20260508204529 | 22 | 189 | 1.6 | 6.4 | 0.00 | 0.00 | 0.00 | 40 | 1046.4 |
| 20260508204025 | 22 | 266 | 8.0 | 12.9 | 0.00 | 0.00 | 0.00 | 33 | 1046.5 |
| 20260508203521 | 22 | 315 | 4.8 | 14.5 | 0.00 | 0.00 | 0.00 | 32 | 1046.8 |
| 20260508203017 | 22 | 246 | 11.3 | 14.5 | 0.00 | 0.00 | 0.00 | 33 | 1046.6 |
| 20260508202514 | 22 | 160 | 8.0 | 9.7 | 0.00 | 0.00 | 0.00 | 37 | 1046.6 |
| 20260508202011 | 22 | 2 | 9.7 | 12.9 | 0.00 | 0.00 | 0.00 | 32 | 1046.7 |
| 20260508201508 | 22 | 202 | 3.2 | 12.9 | 0.00 | 0.00 | 0.00 | 37 | 1047.0 |
| 20260508201005 | 22 | 158 | 1.6 | 6.4 | 0.00 | 0.00 | 0.00 | 35 | 1047.1 |
| 20260508200502 | 22 | 202 | 6.4 | 9.7 | 0.00 | 0.00 | 0.00 | 36 | 1047.4 |
| 20260508195956 | 22 | 143 | 3.2 | 11.3 | 0.00 | 0.00 | 0.00 | 32 | 1047.4 |
| 20260508195454 | 21 | 93 | 11.3 | 17.7 | 0.00 | 0.00 | 0.00 | 36 | 1047.5 |
| 20260508194950 | 21 | 107 | 12.9 | 12.9 | 0.00 | 0.00 | 0.00 | 33 | 1047.4 |
| 20260508194448 | 21 | 59 | 9.7 | 12.9 | 0.00 | 0.00 | 0.00 | 34 | 1047.0 |
| 20260508193944 | 21 | 114 | 11.3 | 16.1 | 0.00 | 0.00 | 0.00 | 35 | 1047.0 |
| 20260508193441 | 21 | 126 | 4.8 | 14.5 | 0.00 | 0.00 | 0.00 | 39 | 1047.0 |
| 20260508192937 | 21 | 94 | 9.7 | 16.1 | 0.00 | 0.00 | 0.00 | 34 | 1047.3 |
| 20260508192434 | 21 | 95 | 9.7 | 14.5 | 0.00 | 0.00 | 0.00 | 37 | 1047.1 |
| 20260508191931 | 21 | 197 | 6.4 | 11.3 | 0.00 | 0.00 | 0.00 | 39 | 1047.4 |
| 20260508191429 | 21 | 83 | 8.0 | 12.9 | 0.00 | 0.00 | 0.00 | 36 | 1047.3 |
| 20260508190925 | 21 | 84 | 4.8 | 9.7 | 0.00 | 0.00 | 0.00 | 36 | 1047.6 |
| 20260508190422 | 21 | 93 | 6.4 | 12.9 | 0.00 | 0.00 | 0.00 | 34 | 1047.7 |
| 20260508185918 | 21 | 136 | 8.0 | 11.3 | 0.00 | 0.00 | 0.00 | 38 | 1047.7 |
| 20260508185416 | 21 | 113 | 11.3 | 17.7 | 0.00 | 0.00 | 0.00 | 34 | 1047.8 |
| 20260508184913 | 21 | 75 | 16.1 | 20.9 | 0.00 | 0.00 | 0.00 | 33 | 1047.8 |
| 20260508184411 | 21 | 74 | 14.5 | 17.7 | 0.00 | 0.00 | 0.00 | 35 | 1047.8 |
| 20260508183907 | 21 | 89 | 6.4 | 12.9 | 0.00 | 0.00 | 0.00 | 37 | 1048.1 |
| 20260508183404 | 20 | 90 | 8.0 | 14.5 | 0.00 | 0.00 | 0.00 | 38 | 1048.0 |
| 20260508182859 | 21 | 83 | 9.7 | 17.7 | 0.00 | 0.00 | 0.00 | 35 | 1048.0 |
| 20260508182356 | 20 | 87 | 9.7 | 20.9 | 0.00 | 0.00 | 0.00 | 37 | 1048.4 |
| 20260508181852 | 20 | 180 | 1.6 | 12.9 | 0.00 | 0.00 | 0.00 | 42 | 1048.3 |
| 20260508181349 | 20 | 60 | 14.5 | 20.9 | 0.00 | 0.00 | 0.00 | 35 | 1048.5 |
| 20260508180846 | 21 | 129 | 9.7 | 17.7 | 0.00 | 0.00 | 0.00 | 35 | 1048.5 |
| 20260508180343 | 21 | 108 | 8.0 | 11.3 | 0.00 | 0.00 | 0.00 | 35 | 1048.5 |
| 20260508175839 | 21 | 186 | 3.2 | 6.4 | 0.00 | 0.00 | 0.00 | 40 | 1048.8 |
| 20260508175335 | 21 | 156 | 11.3 | 14.5 | 0.00 | 0.00 | 0.00 | 33 | 1048.9 |
| 20260508174834 | 21 | 103 | 6.4 | 11.3 | 0.00 | 0.00 | 0.00 | 37 | 1048.9 |
| 20260508174331 | 21 | 115 | 4.8 | 6.4 | 0.00 | 0.00 | 0.00 | 43 | 1049.2 |
| 20260508173827 | 20 | 116 | 6.4 | 6.4 | 0.00 | 0.00 | 0.00 | 42 | 1049.3 |
| 20260508173325 | 20 | 74 | 14.5 | 20.9 | 0.00 | 0.00 | 0.00 | 36 | 1049.2 |
| 20260508172820 | 20 | 87 | 6.4 | 12.9 | 0.00 | 0.00 | 0.00 | 35 | 1049.3 |
| 20260508172317 | 21 | 62 | 9.7 | 22.5 | 0.00 | 0.00 | 0.00 | 34 | 1049.4 |
| 20260508171814 | 20 | 138 | 1.6 | 4.8 | 0.00 | 0.00 | 0.00 | 38 | 1049.4 |
| 20260508171310 | 20 | 93 | 6.4 | 16.1 | 0.00 | 0.00 | 0.00 | 36 | 1049.8 |
| 20260508170807 | 20 | 93 | 9.7 | 11.3 | 0.00 | 0.00 | 0.00 | 40 | 1049.5 |
| 20260508170305 | 20 | 149 | 3.2 | 6.4 | 0.00 | 0.00 | 0.00 | 38 | 1049.8 |
| 20260508165801 | 20 | 115 | 8.0 | 11.3 | 0.00 | 0.00 | 0.00 | 40 | 1049.9 |
| 20260508165259 | 20 | 89 | 9.7 | 12.9 | 0.00 | 0.00 | 0.00 | 38 | 1050.0 |
| 20260508164754 | 20 | 107 | 9.7 | 14.5 | 0.00 | 0.00 | 0.00 | 37 | 1050.1 |
| 20260508164251 | 20 | 187 | 1.6 | 11.3 | 0.00 | 0.00 | 0.00 | 41 | 1050.4 |
| 20260508163750 | 20 | 58 | 8.0 | 9.7 | 0.00 | 0.00 | 0.00 | 43 | 1050.4 |
| 20260508163247 | 20 | 237 | 4.8 | 11.3 | 0.00 | 0.00 | 0.00 | 38 | 1050.5 |
| 20260508162742 | 20 | 80 | 6.4 | 14.5 | 0.00 | 0.00 | 0.00 | 36 | 1050.7 |
| 20260508162240 | 19 | 235 | 6.4 | 11.3 | 0.00 | 0.00 | 0.00 | 44 | 1050.6 |
| 20260508161737 | 19 | 298 | 8.0 | 14.5 | 0.00 | 0.00 | 0.00 | 42 | 1050.9 |
| 20260508161234 | 20 | 235 | 12.9 | 16.1 | 0.00 | 0.00 | 0.00 | 39 | 1050.7 |
| 20260508160732 | 19 | 214 | 3.2 | 6.4 | 0.00 | 0.00 | 0.00 | 40 | 1050.9 |
| 20260508160230 | 19 | 239 | 8.0 | 9.7 | 0.00 | 0.00 | 0.00 | 40 | 1050.9 |
| 20260508155726 | 19 | 191 | 8.0 | 11.3 | 0.00 | 0.00 | 0.00 | 39 | 1050.9 |
| 20260508155223 | 20 | 128 | 3.2 | 9.7 | 0.00 | 0.00 | 0.00 | 38 | 1050.9 |
| 20260508154720 | 20 | 138 | 6.4 | 6.4 | 0.00 | 0.00 | 0.00 | 40 | 1051.1 |
| 20260508154217 | 19 | 163 | 3.2 | 6.4 | 0.00 | 0.00 | 0.00 | 42 | 1051.0 |
| 20260508153714 | 19 | 55 | 6.4 | 11.3 | 0.00 | 0.00 | 0.00 | 43 | 1051.3 |
| 20260508153211 | 19 | 103 | 6.4 | 6.4 | 0.00 | 0.00 | 0.00 | 40 | 1051.0 |
| 20260508152708 | 18 | 75 | 1.6 | 4.8 | 0.00 | 0.00 | 0.00 | 45 | 1051.4 |
| 20260508152203 | 18 | 47 | 4.8 | 6.4 | 0.00 | 0.00 | 0.00 | 45 | 1051.4 |
| 20260508151700 | 18 | 121 | 4.8 | 9.7 | 0.00 | 0.00 | 0.00 | 44 | 1051.5 |
| 20260508151157 | 18 | 156 | 4.8 | 6.4 | 0.00 | 0.00 | 0.00 | 42 | 1051.4 |
| 20260508150653 | 18 | 97 | 4.8 | 9.7 | 0.00 | 0.00 | 0.00 | 43 | 1051.7 |
| 20260508150150 | 18 | 231 | 4.8 | 4.8 | 0.00 | 0.00 | 0.00 | 45 | 1051.5 |
| 20260508145646 | 18 | 260 | 6.4 | 6.4 | 0.00 | 0.00 | 0.00 | 45 | 1051.9 |
| 20260508145142 | 18 | 197 | 3.2 | 9.7 | 0.00 | 0.00 | 0.00 | 42 | 1051.5 |
| 20260508144640 | 18 | 113 | 1.6 | 9.7 | 0.00 | 0.00 | 0.00 | 44 | 1051.7 |
| 20260508144138 | 18 | 96 | 4.8 | 6.4 | 0.00 | 0.00 | 0.00 | 47 | 1051.5 |
| 20260508143635 | 17 | 203 | 1.6 | 4.8 | 0.00 | 0.00 | 0.00 | 49 | 1051.8 |
| 20260508143132 | 17 | 217 | 3.2 | 3.2 | 0.00 | 0.00 | 0.00 | 45 | 1051.5 |
| 20260508142628 | 16 | 212 | 1.6 | 4.8 | 0.00 | 0.00 | 0.00 | 51 | 1051.5 |
| 20260508142125 | 16 | 297 | 1.6 | 4.8 | 0.00 | 0.00 | 0.00 | 49 | 1051.7 |
| 20260508141621 | 16 | 185 | 3.2 | 4.8 | 0.00 | 0.00 | 0.00 | 51 | 1051.9 |
| 20260508141119 | 15 | 86 | 3.2 | 6.4 | 0.00 | 0.00 | 0.00 | 55 | 1051.5 |
| 20260508140616 | 15 | 142 | 0.0 | 3.2 | 0.00 | 0.00 | 0.00 | 55 | 1051.9 |
| 20260508140113 | 14 | 201 | 1.6 | 3.2 | 0.00 | 0.00 | 0.00 | 57 | 1051.5 |
| 20260508135608 | 14 | 44 | 3.2 | 9.7 | 0.00 | 0.00 | 0.00 | 55 | 1051.7 |
| 20260508135105 | 13 | 224 | 1.6 | 3.2 | 0.00 | 0.00 | 0.00 | 56 | 1051.5 |
| 20260508134602 | 13 | 162 | 4.8 | 4.8 | 0.00 | 0.00 | 0.00 | 59 | 1051.9 |
| 20260508134059 | 13 | 57 | 1.6 | 4.8 | 0.00 | 0.00 | 0.00 | 62 | 1051.7 |
| 20260508133555 | 12 | 172 | 4.8 | 4.8 | 0.00 | 0.00 | 0.00 | 60 | 1051.8 |
| 20260508133053 | 12 | 98 | 3.2 | 3.2 | 0.00 | 0.00 | 0.00 | 62 | 1051.7 |
| 20260508132550 | 12 | 186 | 3.2 | 4.8 | 0.00 | 0.00 | 0.00 | 60 | 1051.8 |
| 20260508132047 | 12 | 146 | 1.6 | 3.2 | 0.00 | 0.00 | 0.00 | 66 | 1051.9 |
| 20260508131542 | 11 | 153 | 1.6 | 4.8 | 0.00 | 0.00 | 0.00 | 63 | 1051.8 |
| 20260508131039 | 11 | 83 | 3.2 | 4.8 | 0.00 | 0.00 | 0.00 | 64 | 1051.7 |
| 20260508130536 | 11 | 70 | 3.2 | 3.2 | 0.00 | 0.00 | 0.00 | 66 | 1051.7 |
| 20260508130033 | 11 | 91 | 3.2 | 4.8 | 0.00 | 0.00 | 0.00 | 66 | 1051.9 |
| 20260508125528 | 10 | 134 | 3.2 | 6.4 | 0.00 | 0.00 | 0.00 | 69 | 1051.8 |
| 20260508125026 | 10 | 241 | 0.0 | 1.6 | 0.00 | 0.00 | 0.00 | 68 | 1051.7 |
| 20260508124524 | 10 | 92 | 1.6 | 6.4 | 0.00 | 0.00 | 0.00 | 68 | 1051.7 |
| 20260508124021 | 10 | 78 | 4.8 | 9.7 | 0.00 | 0.00 | 0.00 | 67 | 1051.8 |
| 20260508123520 | 10 | 165 | 3.2 | 3.2 | 0.00 | 0.00 | 0.00 | 68 | 1051.7 |
| 20260508123016 | 9 | 104 | 3.2 | 4.8 | 0.00 | 0.00 | 0.00 | 69 | 1051.8 |
| 20260508122513 | 9 | 107 | 3.2 | 6.4 | 0.00 | 0.00 | 0.00 | 70 | 1051.8 |
| 20260508122010 | 8 | 165 | 4.8 | 4.8 | 0.00 | 0.00 | 0.00 | 67 | 1051.4 |
| 20260508121508 | 8 | 133 | 3.2 | 9.7 | 0.00 | 0.00 | 0.00 | 71 | 1051.3 |
| 20260508121006 | 8 | 86 | 4.8 | 4.8 | 0.00 | 0.00 | 0.00 | 74 | 1051.5 |
| 20260508120503 | 7 | 151 | 1.6 | 3.2 | 0.00 | 0.00 | 0.00 | 76 | 1051.5 |
| 20260508120001 | 7 | 104 | 0.0 | 0.0 | 0.00 | 0.00 | 0.00 | 79 | 1051.4 |
| 20260508115458 | 7 | 127 | 3.2 | 3.2 | 0.00 | 0.00 | 0.00 | 79 | 1051.8 |
| 20260508114955 | 6 | 112 | 0.0 | 3.2 | 0.00 | 0.00 | 0.00 | 85 | 1051.4 |
| 20260508114452 | 5 | 78 | 1.6 | 1.6 | 0.00 | 0.00 | 0.00 | 96 | 1051.7 |
| 20260508113948 | 3 | 105 | 0.0 | 1.6 | 0.00 | 0.00 | 0.00 | 97 | 1051.5 |
| 20260508113446 | 2 | 265 | 0.0 | 0.0 | 0.00 | 0.00 | 0.00 | 96 | 1051.5 |
| 20260508112943 | 2 | 265 | 0.0 | 0.0 | 0.00 | 0.00 | 0.00 | 96 | 1051.3 |
| 20260508112439 | 2 | 265 | 0.0 | 0.0 | 0.00 | 0.00 | 0.00 | 96 | 1051.1 |
| 20260508111936 | 2 | 265 | 0.0 | 0.0 | 0.00 | 0.00 | 0.00 | 95 | 1051.2 |
| 20260508111433 | 2 | 265 | 0.0 | 0.0 | 0.00 | 0.00 | 0.00 | 95 | 1051.0 |
| 20260508110930 | 2 | 265 | 0.0 | 0.0 | 0.00 | 0.00 | 0.00 | 95 | 1051.0 |
| 20260508110428 | 2 | 266 | 0.0 | 0.0 | 0.00 | 0.00 | 0.00 | 95 | 1051.1 |
| 20260508105927 | 2 | 271 | 0.0 | 0.0 | 0.00 | 0.00 | 0.00 | 95 | 1050.9 |
| 20260508105424 | 2 | 271 | 0.0 | 0.0 | 0.00 | 0.00 | 0.00 | 95 | 1050.9 |
| 20260508104921 | 2 | 269 | 0.0 | 0.0 | 0.00 | 0.00 | 0.00 | 95 | 1050.9 |
| 20260508104419 | 2 | 270 | 0.0 | 0.0 | 0.00 | 0.00 | 0.00 | 95 | 1051.0 |
| 20260508103915 | 2 | 266 | 0.0 | 0.0 | 0.00 | 0.00 | 0.00 | 95 | 1050.9 |
| 20260508103412 | 2 | 259 | 0.0 | 0.0 | 0.00 | 0.00 | 0.00 | 94 | 1051.0 |
| 20260508102909 | 2 | 259 | 0.0 | 0.0 | 0.00 | 0.00 | 0.00 | 94 | 1050.9 |
| 20260508102408 | 2 | 259 | 0.0 | 0.0 | 0.00 | 0.00 | 0.00 | 94 | 1050.9 |
| 20260508101905 | 2 | 259 | 0.0 | 0.0 | 0.00 | 0.00 | 0.00 | 94 | 1050.7 |
| 20260508101402 | 2 | 259 | 0.0 | 0.0 | 0.00 | 0.00 | 0.00 | 94 | 1050.6 |
| 20260508100859 | 2 | 259 | 0.0 | 0.0 | 0.00 | 0.00 | 0.00 | 94 | 1050.8 |
| 20260508100358 | 2 | 259 | 0.0 | 0.0 | 0.00 | 0.00 | 0.00 | 94 | 1050.6 |
| 20260508095853 | 2 | 259 | 0.0 | 0.0 | 0.00 | 0.00 | 0.00 | 93 | 1050.7 |
| 20260508095351 | 2 | 259 | 0.0 | 0.0 | 0.00 | 0.00 | 0.00 | 93 | 1050.8 |
| 20260508094848 | 2 | 259 | 0.0 | 0.0 | 0.00 | 0.00 | 0.00 | 93 | 1050.8 |
| 20260508094345 | 2 | 258 | 0.0 | 0.0 | 0.00 | 0.00 | 0.00 | 93 | 1050.9 |
| 20260508093842 | 3 | 258 | 0.0 | 0.0 | 0.00 | 0.00 | 0.00 | 92 | 1050.8 |
| 20260508093339 | 3 | 258 | 0.0 | 0.0 | 0.00 | 0.00 | 0.00 | 92 | 1050.6 |
| 20260508092837 | 3 | 261 | 0.0 | 0.0 | 0.00 | 0.00 | 0.00 | 92 | 1050.9 |
| 20260508092334 | 3 | 261 | 0.0 | 0.0 | 0.00 | 0.00 | 0.00 | 91 | 1050.8 |
| 20260508091832 | 3 | 261 | 0.0 | 0.0 | 0.00 | 0.00 | 0.00 | 91 | 1050.8 |
| 20260508091328 | 3 | 267 | 0.0 | 0.0 | 0.00 | 0.00 | 0.00 | 90 | 1050.8 |
| 20260508090826 | 3 | 235 | 0.0 | 0.0 | 0.00 | 0.00 | 0.00 | 87 | 1050.7 |
| 20260508090325 | 4 | 150 | 0.0 | 0.0 | 0.00 | 0.00 | 0.00 | 86 | 1050.7 |
| 20260508085820 | 5 | 117 | 0.0 | 3.2 | 0.00 | 0.00 | 0.00 | 85 | 1050.6 |
| 20260508085317 | 4 | 49 | 0.0 | 0.0 | 0.00 | 0.00 | 0.00 | 89 | 1050.8 |
| 20260508084814 | 4 | 70 | 0.0 | 0.0 | 0.00 | 0.00 | 0.00 | 89 | 1050.7 |
| 20260508084311 | 4 | 131 | 0.0 | 0.0 | 0.00 | 0.00 | 0.00 | 89 | 1050.7 |
| 20260508083808 | 4 | 87 | 0.0 | 0.0 | 0.00 | 0.00 | 0.00 | 92 | 1050.7 |
| 20260508083306 | 4 | 99 | 0.0 | 0.0 | 0.00 | 0.00 | 0.00 | 96 | 1050.8 |
| 20260508082805 | 3 | 90 | 0.0 | 0.0 | 0.00 | 0.00 | 0.00 | 96 | 1050.9 |
| 20260508082306 | 3 | 89 | 0.0 | 0.0 | 0.00 | 0.00 | 0.00 | 96 | 1050.8 |
| 20260508081800 | 2 | 90 | 0.0 | 0.0 | 0.00 | 0.00 | 0.00 | 96 | 1050.7 |
| 20260508081257 | 2 | 0 | 0.0 | 0.0 | 0.00 | 0.00 | 0.00 | 96 | 1051.1 |
| 20260508080754 | 2 | 0 | 0.0 | 0.0 | 0.00 | 0.00 | 0.00 | 95 | 1050.7 |
| 20260508080252 | 2 | 0 | 0.0 | 0.0 | 0.00 | 0.00 | 0.00 | 95 | 1050.7 |
| 20260508075748 | 2 | 4 | 0.0 | 0.0 | 0.00 | 0.00 | 0.00 | 96 | 1050.7 |
| 20260508075245 | 2 | 57 | 0.0 | 0.0 | 0.00 | 0.00 | 0.00 | 96 | 1050.6 |
| 20260508074743 | 2 | 26 | 0.0 | 0.0 | 0.00 | 0.00 | 0.00 | 95 | 1050.7 |
| 20260508074240 | 2 | 0 | 0.0 | 0.0 | 0.00 | 0.00 | 0.00 | 95 | 1050.6 |
| 20260508073737 | 2 | 26 | 0.0 | 0.0 | 0.00 | 0.00 | 0.00 | 95 | 1050.7 |
| 20260508073235 | 2 | 18 | 0.0 | 0.0 | 0.00 | 0.00 | 0.00 | 95 | 1050.8 |
| 20260508072731 | 2 | 18 | 0.0 | 0.0 | 0.00 | 0.00 | 0.00 | 95 | 1050.7 |
| 20260508072228 | 3 | 21 | 0.0 | 0.0 | 0.00 | 0.00 | 0.00 | 95 | 1050.7 |
| 20260508071725 | 3 | 12 | 0.0 | 0.0 | 0.00 | 0.00 | 0.00 | 95 | 1050.7 |
| 20260508071223 | 3 | 59 | 0.0 | 0.0 | 0.00 | 0.00 | 0.00 | 95 | 1050.7 |
| 20260508070720 | 2 | 59 | 0.0 | 0.0 | 0.00 | 0.00 | 0.00 | 95 | 1050.5 |
| 20260508070219 | 3 | 59 | 0.0 | 0.0 | 0.00 | 0.00 | 0.00 | 95 | 1050.9 |
| 20260508065716 | 3 | 59 | 0.0 | 0.0 | 0.00 | 0.00 | 0.00 | 95 | 1050.9 |
| 20260508065214 | 3 | 59 | 0.0 | 0.0 | 0.00 | 0.00 | 0.00 | 95 | 1050.8 |
| 20260508064711 | 3 | 59 | 0.0 | 0.0 | 0.00 | 0.00 | 0.00 | 95 | 1050.8 |
| 20260508064209 | 3 | 59 | 0.0 | 0.0 | 0.00 | 0.00 | 0.00 | 95 | 1050.9 |
| 20260508063706 | 3 | 59 | 0.0 | 0.0 | 0.00 | 0.00 | 0.00 | 95 | 1051.0 |
| 20260508063204 | 3 | 54 | 0.0 | 0.0 | 0.00 | 0.00 | 0.00 | 95 | 1051.0 |
| 20260508062701 | 3 | 355 | 0.0 | 0.0 | 0.00 | 0.00 | 0.00 | 95 | 1050.9 |
| 20260508062158 | 3 | 77 | 0.0 | 0.0 | 0.00 | 0.00 | 0.00 | 95 | 1050.9 |
| 20260508061655 | 3 | 94 | 0.0 | 0.0 | 0.00 | 0.00 | 0.00 | 95 | 1051.0 |
| 20260508061153 | 3 | 94 | 0.0 | 0.0 | 0.00 | 0.00 | 0.00 | 95 | 1051.0 |
| 20260508060649 | 3 | 94 | 0.0 | 0.0 | 0.00 | 0.00 | 0.00 | 95 | 1051.0 |
| 20260508060147 | 3 | 86 | 0.0 | 0.0 | 0.00 | 0.00 | 0.00 | 95 | 1051.2 |
| 20260508055642 | 3 | 34 | 0.0 | 0.0 | 0.00 | 0.00 | 0.00 | 95 | 1051.2 |
| 20260508055139 | 3 | 346 | 0.0 | 0.0 | 0.00 | 0.00 | 0.00 | 95 | 1051.2 |
| 20260508054635 | 3 | 69 | 0.0 | 0.0 | 0.00 | 0.00 | 0.00 | 94 | 1051.2 |
| 20260508054133 | 3 | 300 | 0.0 | 1.6 | 0.00 | 0.00 | 0.00 | 94 | 1051.1 |
| 20260508053630 | 3 | 216 | 0.0 | 0.0 | 0.00 | 0.00 | 0.00 | 94 | 1051.4 |
| 20260508053128 | 3 | 313 | 0.0 | 0.0 | 0.00 | 0.00 | 0.00 | 94 | 1051.5 |
| 20260508052625 | 3 | 165 | 0.0 | 0.0 | 0.00 | 0.00 | 0.00 | 95 | 1051.4 |
| 20260508052122 | 3 | 78 | 0.0 | 0.0 | 0.00 | 0.00 | 0.00 | 94 | 1051.4 |
| 20260508051618 | 3 | 206 | 0.0 | 0.0 | 0.00 | 0.00 | 0.00 | 94 | 1051.5 |
| 20260508051113 | 3 | 206 | 0.0 | 0.0 | 0.00 | 0.00 | 0.00 | 94 | 1051.3 |
| 20260508050609 | 3 | 206 | 0.0 | 0.0 | 0.00 | 0.00 | 0.00 | 94 | 1051.4 |
| 20260508050108 | 3 | 206 | 0.0 | 0.0 | 0.00 | 0.00 | 0.00 | 94 | 1051.2 |
| 20260508045603 | 3 | 206 | 0.0 | 0.0 | 0.00 | 0.00 | 0.00 | 94 | 1051.2 |
| 20260508045101 | 3 | 206 | 0.0 | 0.0 | 0.00 | 0.00 | 0.00 | 93 | 1051.1 |
| 20260508044558 | 3 | 206 | 0.0 | 0.0 | 0.00 | 0.00 | 0.00 | 93 | 1051.0 |
| 20260508044054 | 4 | 206 | 0.0 | 0.0 | 0.00 | 0.00 | 0.00 | 93 | 1051.0 |
| 20260508043551 | 4 | 206 | 0.0 | 0.0 | 0.00 | 0.00 | 0.00 | 94 | 1050.9 |
| 20260508043049 | 4 | 206 | 0.0 | 0.0 | 0.00 | 0.00 | 0.00 | 94 | 1051.2 |
| 20260508042545 | 3 | 206 | 0.0 | 0.0 | 0.00 | 0.00 | 0.00 | 93 | 1050.9 |
| 20260508042042 | 4 | 206 | 0.0 | 0.0 | 0.00 | 0.00 | 0.00 | 93 | 1051.1 |
| 20260508041538 | 4 | 206 | 0.0 | 0.0 | 0.00 | 0.00 | 0.00 | 93 | 1051.1 |
| 20260508041035 | 4 | 206 | 0.0 | 0.0 | 0.00 | 0.00 | 0.00 | 93 | 1051.0 |
| 20260508040532 | 4 | 206 | 0.0 | 0.0 | 0.00 | 0.00 | 0.00 | 93 | 1050.9 |
| 20260508040030 | 4 | 206 | 0.0 | 0.0 | 0.00 | 0.00 | 0.00 | 93 | 1051.1 |
| 20260508035526 | 4 | 206 | 0.0 | 0.0 | 0.00 | 0.00 | 0.00 | 92 | 1050.9 |
| 20260508035024 | 4 | 206 | 0.0 | 0.0 | 0.00 | 0.00 | 0.00 | 92 | 1051.1 |
| 20260508034521 | 4 | 206 | 0.0 | 0.0 | 0.00 | 0.00 | 0.00 | 91 | 1051.1 |
| 20260508034018 | 4 | 206 | 0.0 | 0.0 | 0.00 | 0.00 | 0.00 | 91 | 1051.1 |
| 20260508033515 | 5 | 206 | 0.0 | 0.0 | 0.00 | 0.00 | 0.00 | 90 | 1051.2 |
| 20260508033013 | 5 | 206 | 0.0 | 0.0 | 0.00 | 0.00 | 0.00 | 90 | 1051.0 |